period_start,C,m1,H,J0,J1,J2,J3,J4,J5,JA,JB,JC,JD,JJ,JK,JN,#
2014-01-02 00:00:56,0.02,5.42,0.00,24.53,26.22,28.94,5.81,30.25,1014.20,2041.00,1847.98,2143.75,2319.99,349.84,321.38,31.83,0000 0000 0000 0000 000000
2014-01-02 00:01:56,0.07,5.42,0.00,24.56,26.22,28.95,5.89,30.38,1014.20,2041.00,1847.94,2143.45,2319.87,349.99,321.50,31.83,0000 0000 0000 0000 000000
2014-01-02 00:02:57,0.17,5.42,0.00,24.55,26.22,28.95,5.88,30.42,1014.19,2041.00,1847.76,2143.21,2319.67,349.95,321.46,31.84,0000 0000 0000 0000 000000
2014-01-02 00:03:57,0.19,5.43,0.00,24.55,26.22,28.96,6.02,30.46,1014.21,2041.00,1847.45,2143.09,2319.35,350.51,321.99,31.84,0000 0000 0000 0000 000000
2014-01-02 00:04:57,0.24,5.43,0.00,24.55,26.22,28.91,5.84,30.38,1014.19,2041.00,1847.18,2143.03,2319.17,350.29,321.78,31.85,0000 0000 0000 0000 000000
2014-01-02 00:05:57,0.16,5.43,0.00,24.55,26.21,28.92,5.97,30.46,1014.18,2041.00,1847.06,2143.01,2319.08,350.45,321.92,31.86,0000 0000 0000 0000 000000
2014-01-02 00:06:58,0.07,5.43,0.00,24.54,26.21,28.93,6.05,30.46,1014.18,2041.00,1847.02,2143.00,2319.03,350.94,322.37,31.86,0000 0000 0000 0000 000000
2014-01-02 00:07:58,0.03,5.43,0.00,24.56,26.21,28.95,5.88,30.42,1014.18,2041.00,1847.00,2143.00,2319.01,349.66,321.18,31.87,0000 0000 0000 0000 000000
2014-01-02 00:08:58,0.01,5.43,0.00,24.57,26.20,28.95,5.92,30.50,1014.18,2041.01,1847.00,2143.00,2319.00,350.31,321.50,31.87,0000 0000 0000 0000 000000
2014-01-02 00:09:59,0.01,5.43,0.00,24.57,26.20,28.94,5.78,30.50,1014.18,2041.02,1846.99,2142.97,2319.00,349.50,321.28,31.88,0000 0000 0000 0000 000000
2014-01-02 00:10:59,0.01,5.43,0.00,24.55,26.20,28.93,5.88,30.50,1014.18,2041.03,1846.97,2142.92,2318.99,349.81,321.24,31.89,0000 0000 0000 0000 000000
2014-01-02 00:11:59,0.08,5.43,0.00,24.54,26.20,28.92,6.09,30.54,1014.18,2041.02,1846.85,2142.72,2318.90,350.81,322.26,31.89,0000 0000 0000 0000 000000
2014-01-02 00:13:00,0.13,5.43,0.00,24.53,26.20,28.95,6.06,30.46,1014.19,2041.01,1846.62,2142.38,2318.70,350.38,321.95,31.90,0000 0000 0000 0000 000000
2014-01-02 00:14:00,0.28,5.43,0.00,24.53,26.20,28.94,5.77,30.33,1014.20,2041.02,1846.28,2142.16,2318.34,349.78,320.90,31.90,0000 0000 0000 0000 000000
2014-01-02 00:15:00,0.30,5.43,0.00,24.54,26.20,28.93,5.75,30.50,1014.19,2041.01,1846.10,2142.09,2318.17,349.64,320.78,31.91,0000 0000 0000 0000 000000
2014-01-02 00:16:01,0.10,5.43,0.00,24.54,26.20,28.91,5.91,30.58,1014.18,2041.01,1846.05,2142.03,2318.08,348.80,320.77,31.91,0000 0000 0000 0000 000000
2014-01-02 00:17:01,0.05,5.43,0.00,24.55,26.20,28.95,6.02,30.58,1014.19,2041.02,1846.02,2142.02,2318.04,350.89,322.46,31.92,0000 0000 0000 0000 000000
2014-01-02 00:18:01,0.05,5.43,0.00,24.52,26.20,28.92,6.10,30.50,1014.19,2041.03,1846.00,2142.00,2318.01,350.79,322.36,31.93,0000 0000 0000 0000 000000
2014-01-02 00:19:02,0.01,5.43,0.00,24.52,26.20,28.94,5.93,30.33,1014.21,2041.02,1845.98,2142.00,2318.00,349.25,320.86,31.93,0000 0000 0000 0000 000000
2014-01-02 00:20:02,0.00,5.43,0.00,24.52,26.20,28.96,6.11,30.54,1014.20,2041.01,1845.97,2142.00,2317.99,351.23,322.49,31.94,0000 0000 0000 0000 000000
2014-01-02 00:21:03,0.00,5.43,0.00,24.53,26.20,28.98,6.01,30.46,1014.20,2041.02,1845.76,2141.97,2317.97,350.07,321.37,31.94,0000 0000 0000 0000 000000
2014-01-02 00:22:03,0.09,5.44,0.00,24.53,26.20,28.91,6.13,30.54,1014.21,2041.01,1845.38,2141.94,2317.93,351.95,322.82,31.95,0000 0000 0000 0000 000000
2014-01-02 00:23:03,0.18,5.44,0.00,24.51,26.20,28.88,5.82,30.33,1014.25,2041.01,1845.16,2141.70,2317.71,349.77,321.13,31.96,0000 0000 0000 0000 000000
2014-01-02 00:24:04,0.24,5.44,0.00,24.52,26.20,28.88,5.92,30.25,1014.25,2041.01,1845.06,2141.39,2317.37,350.25,321.78,31.96,0000 0000 0000 0000 000000
2014-01-02 00:25:04,0.24,5.44,0.00,24.52,26.20,28.93,5.88,30.25,1014.21,2041.02,1845.02,2141.20,2317.18,349.45,321.40,31.97,0000 0000 0000 0000 000000
2014-01-02 00:26:05,0.12,5.44,0.00,24.50,26.20,28.92,5.94,30.17,1014.19,2041.02,1845.00,2141.08,2317.09,349.82,321.46,31.97,0000 0000 0000 0000 000000
2014-01-02 00:27:05,0.08,5.44,0.00,24.52,26.20,28.96,6.02,30.42,1014.20,2041.01,1844.99,2141.03,2317.05,350.41,321.93,31.98,0000 0000 0000 0000 000000
2014-01-02 00:28:06,0.01,5.44,0.00,24.50,26.20,28.94,5.88,30.17,1014.21,2041.03,1844.99,2141.01,2317.02,349.70,321.42,31.98,0000 0000 0000 0000 000000
2014-01-02 00:29:06,0.04,5.44,0.00,24.51,26.20,28.91,5.96,30.33,1014.20,2041.05,1844.98,2141.00,2317.01,350.87,322.35,31.99,0000 0000 0000 0000 000000
2014-01-02 00:30:06,0.03,5.44,0.00,24.52,26.20,28.88,6.02,30.21,1014.19,2041.06,1844.91,2141.00,2317.00,350.11,321.64,32.00,0000 0000 0000 0000 000000
2014-01-02 00:31:07,0.02,5.44,0.00,24.52,26.20,28.88,5.90,30.50,1014.18,2041.04,1844.50,2141.00,2317.00,349.65,321.22,32.00,0000 0000 0000 0000 000000
2014-01-02 00:32:07,0.13,5.44,0.00,24.52,26.20,28.92,6.02,30.38,1014.20,2041.02,1844.22,2140.99,2316.99,349.68,321.25,32.01,0000 0000 0000 0000 000000
2014-01-02 00:33:08,0.10,5.44,0.00,24.50,26.20,28.93,5.77,30.25,1014.21,2041.02,1844.09,2140.94,2316.89,349.59,321.19,32.01,0000 0000 0000 0000 000000
2014-01-02 00:34:08,0.04,5.44,0.00,24.51,26.20,28.91,5.88,30.17,1014.19,2041.00,1844.03,2140.76,2316.51,350.02,321.57,32.02,0000 0000 0000 0000 000000
2014-01-02 00:35:08,0.19,5.44,0.00,24.52,26.20,28.94,5.74,30.29,1014.20,2041.00,1844.01,2140.47,2316.23,349.20,320.81,32.03,0000 0000 0000 0000 000000
2014-01-02 00:36:09,0.17,5.45,0.00,24.52,26.20,28.95,5.73,30.29,1014.20,2041.01,1844.00,2140.26,2316.08,349.79,321.35,32.03,0000 0000 0000 0000 000000
2014-01-02 00:37:09,0.14,5.45,0.00,24.54,26.20,28.92,5.93,30.38,1014.24,2041.03,1843.99,2140.11,2316.03,349.70,321.41,32.04,0000 0000 0000 0000 000000
2014-01-02 00:38:10,0.08,5.45,0.00,24.53,26.19,28.92,5.76,30.38,1014.21,2041.03,1843.98,2140.04,2316.01,349.23,321.18,32.04,0000 0000 0000 0000 000000
2014-01-02 00:39:10,0.05,5.45,0.00,24.50,26.19,28.94,5.84,30.38,1014.20,2041.01,1843.84,2140.01,2316.00,350.17,321.39,32.05,0000 0000 0000 0000 000000
2014-01-02 00:40:10,0.05,5.45,0.00,24.51,26.19,28.91,5.71,30.29,1014.20,2041.02,1843.50,2140.00,2316.00,349.03,321.26,32.06,0000 0000 0000 0000 000000
2014-01-02 00:41:11,0.13,5.45,0.00,24.52,26.19,28.93,5.97,30.29,1014.22,2041.03,1843.23,2140.00,2316.00,349.71,321.18,32.06,0000 0000 0000 0000 000000
2014-01-02 00:42:11,0.08,5.45,0.00,24.50,26.19,28.93,5.79,30.33,1014.37,2041.03,1843.08,2140.00,2315.99,349.82,321.45,32.07,0000 0000 0000 0000 000000
2014-01-02 00:43:11,0.05,5.45,0.00,24.49,26.19,28.92,6.02,30.33,1014.43,2041.07,1843.03,2139.99,2315.95,350.38,322.21,32.07,0000 0000 0000 0000 000000
2014-01-02 00:44:12,0.08,5.45,0.00,24.50,26.19,28.94,5.86,30.33,1014.53,2041.06,1843.01,2139.99,2315.79,350.86,322.46,32.08,0000 0000 0000 0000 000000
2014-01-02 00:45:12,0.04,5.45,0.00,24.52,26.18,28.93,5.99,30.38,1014.53,2041.05,1843.00,2139.95,2315.46,350.61,322.34,32.08,0000 0000 0000 0000 000000
2014-01-02 00:46:13,0.11,5.45,0.00,24.52,26.18,28.95,5.81,30.33,1014.55,2041.06,1842.99,2139.78,2315.22,349.52,321.45,32.09,0000 0000 0000 0000 000000
2014-01-02 00:47:13,0.11,5.45,0.00,24.51,26.18,28.92,5.88,30.29,1014.61,2041.07,1842.96,2139.49,2315.08,349.05,321.12,32.10,0000 0000 0000 0000 000000
2014-01-02 00:48:13,0.16,5.45,0.00,24.52,26.18,28.90,6.03,30.33,1014.65,2041.07,1842.92,2139.25,2315.03,350.71,322.08,32.10,0000 0000 0000 0000 000000
2014-01-02 00:49:14,0.13,5.45,0.00,24.52,26.17,28.91,5.97,30.33,1014.65,2041.08,1842.58,2139.09,2315.01,349.38,321.27,32.11,0000 0000 0000 0000 000000
2014-01-02 00:50:14,0.20,5.45,0.00,24.53,26.17,28.90,6.00,30.46,1014.65,2041.09,1842.24,2139.03,2315.00,350.35,322.09,32.11,0000 0000 0000 0000 000000
2014-01-02 00:51:14,0.18,5.45,0.00,24.52,26.17,28.89,5.94,30.29,1014.66,2041.04,1842.10,2139.01,2315.00,349.98,321.77,32.12,0000 0000 0000 0000 000000
2014-01-02 00:52:14,0.00,5.45,0.00,24.52,26.17,28.88,5.99,30.38,1014.66,2041.02,1842.03,2139.00,2314.98,349.75,321.53,32.13,0000 0000 0000 0000 000000
2014-01-02 00:53:15,0.01,5.45,0.00,24.53,26.17,28.89,5.85,30.46,1014.66,2041.03,1842.01,2138.99,2314.94,349.92,321.61,32.13,0000 0000 0000 0000 000000
2014-01-02 00:54:15,0.02,5.46,0.00,24.51,26.17,28.91,6.01,30.42,1014.66,2041.02,1842.00,2138.98,2314.68,350.01,321.70,32.14,0000 0000 0000 0000 000000
2014-01-02 00:55:16,0.05,5.46,0.00,24.51,26.17,28.87,6.02,30.33,1014.66,2041.03,1841.93,2138.94,2314.32,349.83,321.54,32.14,0000 0000 0000 0000 000000
2014-01-02 00:56:16,0.15,5.46,0.00,24.52,26.17,28.84,5.79,30.38,1014.69,2041.04,1841.60,2138.69,2314.17,349.33,321.09,32.15,0000 0000 0000 0000 000000
2014-01-02 00:57:16,0.27,5.46,0.00,24.51,26.17,28.86,5.73,30.54,1014.68,2041.03,1841.29,2138.43,2314.09,348.77,320.58,32.16,0000 0000 0000 0000 000000
2014-01-02 00:58:17,0.21,5.46,0.00,24.50,26.17,28.84,6.02,30.33,1014.69,2041.04,1841.13,2138.22,2314.05,350.34,322.03,32.16,0000 0000 0000 0000 000000
2014-01-02 00:59:17,0.19,5.46,0.00,24.51,26.17,28.87,5.94,30.29,1014.70,2041.07,1841.05,2138.13,2314.02,350.34,322.02,32.17,0000 0000 0000 0000 000000
2014-01-02 01:00:17,0.10,5.46,0.00,24.53,26.17,28.88,5.81,30.29,1014.72,2041.06,1841.01,2138.07,2314.00,349.36,321.11,32.17,0000 0000 0000 0000 000000
2014-01-02 01:01:18,0.02,5.46,0.00,24.51,26.17,28.89,5.84,30.38,1014.73,2041.11,1841.00,2138.03,2313.97,349.89,321.65,32.18,0000 0000 0000 0000 000000
2014-01-02 01:02:18,0.04,5.46,0.00,24.52,26.17,28.92,5.95,30.46,1014.70,2041.06,1840.99,2138.01,2313.97,350.69,322.13,32.18,0000 0000 0000 0000 000000
2014-01-02 01:03:18,-0.02,5.46,0.00,24.52,26.17,28.86,5.87,30.50,1014.70,2041.07,1840.97,2138.00,2313.96,349.74,321.71,32.19,0000 0000 0000 0000 000000
2014-01-02 01:04:19,0.02,5.46,0.00,24.53,26.17,28.89,5.78,30.29,1014.71,2041.07,1840.82,2138.00,2313.80,349.72,321.02,32.20,0000 0000 0000 0000 000000
2014-01-02 01:05:19,0.10,5.46,0.00,24.52,26.17,28.92,5.83,30.33,1014.78,2041.10,1840.54,2137.99,2313.53,349.32,321.11,32.20,0000 0000 0000 0000 000000
2014-01-02 01:06:19,0.19,5.46,0.00,24.51,26.17,28.94,5.88,30.54,1014.80,2041.09,1840.25,2137.93,2313.26,349.82,321.79,32.21,0000 0000 0000 0000 000000
2014-01-02 01:07:20,0.19,5.46,0.00,24.52,26.17,28.95,5.72,30.54,1014.89,2041.07,1840.10,2137.70,2313.10,349.61,321.40,32.21,0000 0000 0000 0000 000000
2014-01-02 01:08:20,0.17,5.46,0.00,24.52,26.17,28.92,5.68,30.50,1014.97,2041.09,1840.03,2137.46,2313.03,348.95,320.63,32.22,0000 0000 0000 0000 000000
2014-01-02 01:09:20,0.15,5.47,0.00,24.52,26.17,28.89,5.86,30.38,1015.09,2041.13,1840.01,2137.30,2313.01,351.19,322.75,32.23,0000 0000 0000 0000 000000
2014-01-02 01:10:21,0.11,5.47,0.00,24.50,26.17,28.90,5.93,30.67,1015.07,2041.19,1840.00,2137.16,2313.00,350.19,322.01,32.23,0000 0000 0000 0000 000000
2014-01-02 01:11:21,0.11,5.47,0.00,24.52,26.17,28.89,5.88,30.50,1015.05,2041.12,1839.98,2137.07,2312.99,349.80,321.79,32.24,0000 0000 0000 0000 000000
2014-01-02 01:12:21,-0.02,5.47,0.00,24.51,26.17,28.89,5.89,30.46,1014.95,2041.09,1839.97,2137.02,2312.99,349.07,320.63,32.24,0000 0000 0000 0000 000000
2014-01-02 01:13:22,0.01,5.47,0.00,24.52,26.17,28.85,6.04,30.63,1014.84,2041.13,1839.80,2137.01,2312.95,350.76,321.85,32.25,0000 0000 0000 0000 000000
2014-01-02 01:14:22,0.11,5.47,0.00,24.52,26.17,28.86,6.09,30.54,1014.77,2041.12,1839.44,2137.00,2312.75,350.37,321.93,32.25,0000 0000 0000 0000 000000
2014-01-02 01:15:23,0.19,5.47,0.00,24.51,26.17,28.91,5.92,30.42,1014.74,2041.16,1839.18,2136.99,2312.47,350.24,322.05,32.26,0000 0000 0000 0000 000000
2014-01-02 01:16:23,0.17,5.47,0.00,24.52,26.17,28.92,5.81,30.38,1014.72,2041.15,1839.07,2136.97,2312.25,348.72,320.53,32.27,0000 0000 0000 0000 000000
2014-01-02 01:17:23,0.10,5.47,0.00,24.52,26.17,28.90,5.91,30.58,1014.70,2041.15,1839.02,2136.97,2312.10,349.65,321.36,32.27,0000 0000 0000 0000 000000
2014-01-02 01:18:24,0.04,5.47,0.00,24.51,26.17,28.92,6.00,30.83,1014.68,2041.15,1839.00,2136.88,2312.06,349.96,322.38,32.28,0000 0000 0000 0000 000000
2014-01-02 01:19:24,0.09,5.47,0.00,24.51,26.17,28.89,6.08,30.50,1014.70,2041.18,1839.00,2136.70,2312.03,349.61,321.51,32.28,0000 0000 0000 0000 000000
2014-01-02 01:20:24,0.09,5.47,0.00,24.52,26.17,28.86,6.07,30.63,1014.72,2041.19,1838.98,2136.38,2312.01,350.55,321.87,32.29,0000 0000 0000 0000 000000
2014-01-02 01:21:25,0.14,5.47,0.00,24.53,26.17,28.84,5.91,30.42,1014.74,2041.20,1838.96,2136.15,2312.00,350.15,322.13,32.30,0000 0000 0000 0000 000000
2014-01-02 01:22:25,0.12,5.47,0.00,24.53,26.17,28.83,6.00,30.42,1014.85,2041.24,1838.94,2136.05,2311.97,350.88,322.55,32.30,0000 0000 0000 0000 000000
2014-01-02 01:23:25,0.09,5.47,0.00,24.52,26.17,28.84,5.97,30.38,1014.89,2041.16,1838.70,2136.03,2311.94,350.63,321.91,32.31,0000 0000 0000 0000 000000
2014-01-02 01:24:26,0.02,5.47,0.00,24.51,26.17,28.86,5.81,30.42,1014.90,2041.15,1838.33,2136.01,2311.79,350.29,322.05,32.31,0000 0000 0000 0000 000000
2014-01-02 01:25:26,0.19,5.48,0.00,24.51,26.17,28.89,5.91,30.58,1014.79,2041.19,1838.12,2136.00,2311.51,349.73,321.50,32.32,0000 0000 0000 0000 000000
2014-01-02 01:26:26,0.17,5.48,0.00,24.50,26.17,28.89,5.83,30.42,1014.83,2041.22,1838.04,2136.00,2311.26,349.91,321.67,32.33,0000 0000 0000 0000 000000
2014-01-02 01:27:27,0.11,5.48,0.00,24.50,26.17,28.91,5.92,30.04,1014.97,2041.19,1838.01,2135.99,2311.10,350.93,322.65,32.33,0000 0000 0000 0000 000000
2014-01-02 01:28:27,0.03,5.48,0.00,24.47,26.17,28.89,5.71,30.33,1015.01,2041.23,1838.00,2135.97,2311.04,348.64,320.62,32.34,0000 0000 0000 0000 000000
2014-01-02 01:29:27,0.03,5.48,0.00,24.47,26.17,28.88,5.78,30.33,1015.12,2041.21,1837.99,2135.93,2311.02,350.25,322.12,32.34,0000 0000 0000 0000 000000
2014-01-02 01:30:28,0.08,5.48,0.00,24.46,26.16,28.85,5.82,30.38,1015.15,2041.16,1837.94,2135.63,2311.00,349.70,321.60,32.35,0000 0000 0000 0000 000000
2014-01-02 01:31:28,0.09,5.48,0.00,24.48,26.16,28.86,5.82,30.38,1015.13,2041.14,1837.66,2135.35,2311.00,350.44,321.75,32.35,0000 0000 0000 0000 000000
2014-01-02 01:32:28,0.19,5.48,0.00,24.46,26.16,28.84,5.98,30.54,1015.14,2041.14,1837.33,2135.14,2310.96,350.61,322.47,32.36,0000 0000 0000 0000 000000
2014-01-02 01:33:29,0.18,5.48,0.00,24.46,26.16,28.87,5.97,30.50,1015.15,2041.13,1837.15,2135.05,2310.80,350.09,321.82,32.37,0000 0000 0000 0000 000000
2014-01-02 01:34:29,0.12,5.48,0.00,24.47,26.16,28.84,5.85,30.29,1015.15,2041.14,1837.07,2135.02,2310.59,350.34,321.87,32.37,0000 0000 0000 0000 000000
2014-01-02 01:35:29,0.09,5.48,0.00,24.48,26.16,28.89,5.87,30.50,1015.15,2041.10,1837.02,2135.00,2310.33,349.83,321.74,32.38,0000 0000 0000 0000 000000
2014-01-02 01:36:30,0.05,5.48,0.00,24.48,26.16,28.86,5.97,30.46,1015.15,2041.13,1837.00,2135.00,2310.15,349.92,322.13,32.38,0000 0000 0000 0000 000000
2014-01-02 01:37:30,0.06,5.48,0.00,24.49,26.15,28.85,5.94,30.79,1015.15,2041.12,1836.99,2134.98,2310.08,348.84,320.81,32.39,0000 0000 0000 0000 000000
2014-01-02 01:38:30,0.04,5.48,0.00,24.49,26.15,28.87,5.89,30.75,1015.15,2041.14,1836.98,2134.95,2310.03,350.42,322.17,32.40,0000 0000 0000 0000 000000
2014-01-02 01:39:31,0.05,5.48,0.00,24.50,26.15,28.88,5.94,30.54,1015.15,2041.15,1836.80,2134.83,2310.01,349.88,321.75,32.40,0000 0000 0000 0000 000000
2014-01-02 01:40:31,0.14,5.49,0.00,24.50,26.15,28.85,5.88,30.46,1015.15,2041.15,1836.51,2134.62,2309.99,349.29,321.22,32.41,0000 0000 0000 0000 000000
2014-01-02 01:41:32,0.18,5.49,0.00,24.51,26.15,28.84,5.98,30.33,1015.15,2041.23,1836.27,2134.58,2309.99,350.37,322.20,32.41,0000 0000 0000 0000 000000
2014-01-02 01:42:32,0.18,5.49,0.00,24.50,26.15,28.84,5.85,30.29,1015.15,2041.29,1836.11,2134.43,2309.98,350.03,321.90,32.42,0000 0000 0000 0000 000000
2014-01-02 01:43:32,0.13,5.49,0.00,24.50,26.15,28.84,5.77,30.42,1015.15,2041.21,1836.04,2134.22,2309.97,349.12,320.95,32.42,0000 0000 0000 0000 000000
2014-01-02 01:44:32,0.09,5.49,0.00,24.48,26.15,28.85,5.87,30.46,1015.15,2041.26,1836.01,2134.08,2309.90,349.67,321.49,32.43,0000 0000 0000 0000 000000
2014-01-02 01:45:33,0.16,5.49,0.00,24.48,26.15,28.90,5.85,30.38,1015.15,2041.40,1836.00,2134.03,2309.67,349.89,321.29,32.44,0000 0000 0000 0000 000000
2014-01-02 01:46:33,0.16,5.49,0.00,24.50,26.15,28.92,5.76,30.46,1015.15,2041.36,1835.99,2134.01,2309.40,348.99,321.11,32.44,0000 0000 0000 0000 000000
2014-01-02 01:47:33,0.05,5.49,0.00,24.50,26.15,28.92,5.90,30.42,1015.15,2041.41,1835.99,2134.00,2309.19,350.15,322.17,32.45,0000 0000 0000 0000 000000
2014-01-02 01:48:33,0.10,5.49,0.00,24.50,26.15,28.91,5.88,30.42,1015.17,2041.39,1835.92,2133.99,2309.07,350.31,322.15,32.45,0000 0000 0000 0000 000000
2014-01-02 01:49:34,0.10,5.49,0.00,24.51,26.15,28.87,5.73,30.42,1015.16,2041.34,1835.65,2133.99,2309.03,349.37,321.24,32.46,0000 0000 0000 0000 000000
2014-01-02 01:50:34,0.05,5.49,0.00,24.48,26.15,28.87,6.02,30.42,1015.16,2041.39,1835.34,2133.96,2309.01,350.27,322.05,32.47,0000 0000 0000 0000 000000
2014-01-02 01:51:34,0.16,5.49,0.00,24.49,26.15,28.87,5.81,30.38,1015.15,2041.47,1835.13,2133.93,2309.00,349.32,321.05,32.47,0000 0000 0000 0000 000000
2014-01-02 01:52:35,0.16,5.49,0.00,24.48,26.15,28.91,5.94,30.58,1015.15,2041.52,1835.06,2133.81,2308.98,350.55,322.40,32.48,0000 0000 0000 0000 000000
2014-01-02 01:53:35,0.14,5.49,0.00,24.48,26.15,28.87,5.97,30.38,1015.15,2041.57,1835.02,2133.50,2308.95,350.20,321.72,32.48,0000 0000 0000 0000 000000
2014-01-02 01:54:36,0.17,5.50,0.00,24.49,26.15,28.85,5.84,30.29,1015.16,2041.57,1835.00,2133.20,2308.93,349.44,321.36,32.49,0000 0000 0000 0000 000000
2014-01-02 01:55:36,0.20,5.50,0.00,24.48,26.15,28.87,5.75,30.29,1015.15,2041.60,1835.00,2133.09,2308.69,349.67,321.58,32.50,0000 0000 0000 0000 000000
2014-01-02 01:56:36,0.07,5.50,0.00,24.47,26.15,28.87,6.10,30.54,1015.15,2041.54,1834.95,2133.04,2308.36,350.64,322.49,32.50,0000 0000 0000 0000 000000
2014-01-02 01:57:36,0.03,5.50,0.00,24.47,26.15,28.87,6.05,30.33,1015.15,2041.38,1834.66,2133.01,2308.16,349.93,321.83,32.51,0000 0000 0000 0000 000000
2014-01-02 01:58:37,0.07,5.50,0.00,24.47,26.15,28.89,5.73,30.42,1015.16,2041.30,1834.31,2133.00,2308.06,349.01,321.00,32.51,0000 0000 0000 0000 000000
2014-01-02 01:59:37,0.04,5.50,0.00,24.47,26.15,28.90,5.78,30.33,1015.17,2041.30,1834.13,2133.00,2308.02,349.38,321.34,32.52,0000 0000 0000 0000 000000
2014-01-02 02:00:37,0.11,5.50,0.00,24.48,26.15,28.85,6.03,30.67,1015.16,2041.36,1834.04,2132.97,2308.01,350.86,322.68,32.52,0000 0000 0000 0000 000000
2014-01-02 02:01:38,0.06,5.50,0.00,24.47,26.15,28.88,5.78,30.79,1015.16,2041.31,1834.01,2132.90,2307.99,349.44,321.39,32.53,0000 0000 0000 0000 000000
2014-01-02 02:02:38,0.01,5.50,0.00,24.49,26.15,28.88,6.04,30.75,1015.20,2041.37,1834.00,2132.82,2307.97,350.44,322.18,32.54,0000 0000 0000 0000 000000
2014-01-02 02:03:38,0.06,5.50,0.00,24.48,26.15,28.85,6.10,30.54,1015.18,2041.32,1833.98,2132.55,2307.98,350.64,322.48,32.54,0000 0000 0000 0000 000000
2014-01-02 02:04:38,0.09,5.50,0.00,24.49,26.15,28.87,5.99,30.33,1015.19,2041.31,1833.94,2132.37,2307.92,350.65,322.50,32.55,0000 0000 0000 0000 000000
2014-01-02 02:05:39,0.09,5.50,0.00,24.50,26.15,28.87,5.62,30.38,1015.19,2041.32,1833.80,2132.17,2307.75,348.70,320.59,32.55,0000 0000 0000 0000 000000
2014-01-02 02:06:39,0.20,5.50,0.00,24.46,26.15,28.86,5.82,30.50,1015.22,2041.27,1833.40,2132.07,2307.35,349.52,321.60,32.56,0000 0000 0000 0000 000000
2014-01-02 02:07:39,0.25,5.50,0.00,24.44,26.15,28.89,5.80,30.63,1015.28,2041.31,1833.17,2132.02,2307.14,349.37,321.38,32.57,0000 0000 0000 0000 000000
2014-01-02 02:08:40,0.11,5.50,0.00,24.44,26.15,28.86,5.70,30.50,1015.22,2041.27,1833.07,2132.00,2307.05,349.57,321.44,32.57,0000 0000 0000 0000 000000
2014-01-02 02:09:40,0.04,5.50,0.00,24.44,26.15,28.86,5.73,30.42,1015.21,2041.29,1833.02,2132.00,2307.01,350.03,320.97,32.58,0000 0000 0000 0000 000000
2014-01-02 02:10:40,0.09,5.50,0.00,24.45,26.15,28.87,5.93,30.33,1015.21,2041.41,1833.00,2132.00,2307.00,350.11,321.98,32.58,0000 0000 0000 0000 000000
2014-01-02 02:11:41,0.10,5.51,0.00,24.47,26.15,28.88,6.08,30.50,1015.20,2041.34,1832.98,2131.96,2307.00,350.78,322.64,32.59,0000 0000 0000 0000 000000
2014-01-02 02:12:41,-0.02,5.50,0.00,24.48,26.15,28.87,6.07,30.67,1015.22,2041.31,1832.96,2131.97,2306.99,350.16,322.06,32.59,0000 0000 0000 0000 000000
2014-01-02 02:13:41,-0.05,5.50,0.00,24.46,26.15,28.87,6.00,30.58,1015.18,2041.38,1832.91,2131.85,2306.94,349.85,321.98,32.60,0000 0000 0000 0000 000000
2014-01-02 02:14:41,0.17,5.51,0.00,24.47,26.15,28.83,5.91,30.67,1015.17,2041.33,1832.62,2131.49,2306.79,349.78,321.71,32.61,0000 0000 0000 0000 000000
2014-01-02 02:15:42,0.25,5.51,0.00,24.47,26.15,28.86,5.74,30.54,1015.20,2041.19,1832.26,2131.21,2306.35,348.97,320.97,32.61,0000 0000 0000 0000 000000
2014-01-02 02:16:42,0.17,5.51,0.00,24.44,26.15,28.91,5.98,30.42,1015.16,2041.19,1832.10,2131.09,2306.15,349.94,321.57,32.62,0000 0000 0000 0000 000000
2014-01-02 02:17:42,0.15,5.51,0.00,24.45,26.15,28.85,5.79,30.33,1015.17,2041.17,1832.03,2131.04,2306.05,349.58,321.64,32.62,0000 0000 0000 0000 000000
2014-01-02 02:18:43,0.07,5.51,0.00,24.47,26.15,28.85,5.98,30.42,1015.18,2041.17,1832.01,2131.01,2306.02,350.69,322.70,32.63,0000 0000 0000 0000 000000
2014-01-02 02:19:43,-0.00,5.51,0.00,24.47,26.15,28.84,5.88,30.50,1015.15,2041.20,1832.00,2131.00,2306.00,349.85,322.16,32.64,0000 0000 0000 0000 000000
2014-01-02 02:20:43,0.02,5.51,0.00,24.47,26.15,28.82,5.78,30.33,1015.15,2041.12,1831.99,2130.99,2306.00,349.70,321.63,32.64,0000 0000 0000 0000 000000
2014-01-02 02:21:43,-0.03,5.51,0.00,24.46,26.15,28.85,5.81,30.42,1015.15,2041.21,1831.98,2130.98,2306.00,349.21,321.19,32.65,0000 0000 0000 0000 000000
2014-01-02 02:22:44,0.09,5.51,0.00,24.47,26.15,28.84,6.04,30.38,1015.17,2041.31,1831.95,2130.99,2305.97,350.21,321.93,32.65,0000 0000 0000 0000 000000
2014-01-02 02:23:44,0.12,5.51,0.00,24.49,26.15,28.80,5.93,30.38,1015.17,2041.29,1831.61,2130.96,2305.89,349.14,321.18,32.66,0000 0000 0000 0000 000000
2014-01-02 02:24:44,0.15,5.51,0.00,24.47,26.15,28.81,5.92,30.25,1015.22,2041.43,1831.29,2130.88,2305.73,349.93,321.85,32.67,0000 0000 0000 0000 000000
2014-01-02 02:25:45,0.28,5.51,0.00,24.47,26.15,28.82,5.92,30.29,1015.31,2041.52,1831.15,2130.70,2305.46,349.65,321.36,32.67,0000 0000 0000 0000 000000
2014-01-02 02:26:45,0.33,5.52,0.00,24.47,26.15,28.82,5.84,30.21,1015.39,2041.59,1831.08,2130.37,2305.25,350.54,322.62,32.68,0000 0000 0000 0000 000000
2014-01-02 02:27:45,0.22,5.52,0.00,24.48,26.14,28.82,5.88,30.42,1015.47,2041.55,1831.03,2130.18,2305.12,350.42,322.38,32.68,0000 0000 0000 0000 000000
2014-01-02 02:28:45,0.09,5.52,0.00,24.48,26.15,28.81,5.85,30.17,1015.41,2041.44,1831.01,2130.10,2305.04,349.54,321.68,32.69,0000 0000 0000 0000 000000
2014-01-02 02:29:46,0.02,5.52,0.00,24.49,26.14,28.86,5.94,30.33,1015.36,2041.45,1830.99,2130.05,2305.01,350.07,322.01,32.69,0000 0000 0000 0000 000000
2014-01-02 02:30:46,0.00,5.52,0.00,24.46,26.14,28.85,5.92,30.29,1015.24,2041.39,1830.98,2130.02,2305.00,349.67,321.64,32.70,0000 0000 0000 0000 000000
2014-01-02 02:31:46,-0.06,5.52,0.00,24.45,26.14,28.85,5.90,30.38,1015.19,2041.25,1830.95,2130.00,2304.99,349.76,321.71,32.71,0000 0000 0000 0000 000000
2014-01-02 02:32:46,-0.12,5.52,0.00,24.46,26.14,28.85,5.83,30.25,1015.19,2041.23,1830.80,2129.99,2304.98,349.65,321.60,32.71,0000 0000 0000 0000 000000
2014-01-02 02:33:47,0.06,5.52,0.00,24.47,26.14,28.82,6.04,30.29,1015.19,2041.21,1830.51,2129.99,2304.80,350.68,322.54,32.72,0000 0000 0000 0000 000000
2014-01-02 02:34:47,0.10,5.52,0.00,24.46,26.14,28.85,5.85,30.29,1015.19,2041.16,1830.26,2129.94,2304.40,349.67,321.62,32.72,0000 0000 0000 0000 000000
2014-01-02 02:35:47,0.16,5.52,0.00,24.46,26.14,28.81,5.99,30.25,1015.21,2041.13,1830.10,2129.70,2304.18,349.83,321.78,32.73,0000 0000 0000 0000 000000
2014-01-02 02:36:47,0.19,5.52,0.00,24.46,26.14,28.83,5.74,30.50,1015.18,2041.13,1830.04,2129.41,2304.06,349.09,321.09,32.74,0000 0000 0000 0000 000000